Regional Weather Roundup
Issued by NWS

Home | Current Version | Previous Version | Graphics & Text | Print | Product List | Glossary On
Versions: 1 2 3 4 5 6 7 8 9 10 11 12 13 14 15 16 17 18 19 20 21 22 23 24 25 26 27 28 29 30 31 32 33 34 35 36 37 38 39 40 41 42 43 44 45 46 47 48 49 50
000
ASUS43 KLSX 310159
RWRMO

WEATHER SUMMARY FOR MISSOURI
NATIONAL WEATHER SERVICE SPRINGFIELD MO
900 PM CDT THU JUL 30 2015

NOTE: "FAIR" INDICATES FEW OR NO CLOUDS BELOW 12,000 FEET WITH NO
       SIGNIFICANT WEATHER AND/OR OBSTRUCTIONS TO VISIBILITY.
       CURRENT SKY AND/OR WEATHER CONDITIONS ARE NOT AVAILABLE FOR
       CHILLICOTHE AND FARMINGTON.

MOZ001>031-035>038-043-044-053-054-310300-
...NORTHERN AND WESTERN MISSOURI...

CITY           SKY/WX    TMP DP  RH WIND       PRES   REMARKS
KANSAS CTY INT PTCLDY    74  64  71 CALM      30.14S
KANSAS C DTWN  CLEAR     82  57  42 CALM      30.12S
LEE`S SUMMIT   PTCLDY    80  61  52 CALM      30.14S
ST JOSEPH      CLEAR     75  71  87 CALM      30.13R
CHILLICOTHE      N/A     75  69  81 CALM      30.14S
KIRKSVILLE     CLEAR     74  66  76 SW5       30.13S

$$
MOZ066>068-077>081-088>096-101>105-310300-
...SOUTHWEST MISSOURI...

CITY           SKY/WX    TMP DP  RH WIND       PRES   REMARKS
SPRINGFIELD    PTCLDY    78  63  59 E7        30.14S
JOPLIN         PTCLDY    78  67  68 E5        30.12F

$$
MOZ032>034-039>042-045>050-055>058-069>072-310300-
...CENTRAL MISSOURI...

CITY           SKY/WX    TMP DP  RH WIND       PRES   REMARKS
COLUMBIA       CLEAR     78  67  68 N3        30.14S
JEFFERSON CITY CLEAR     76  66  71 CALM      30.12R
ROLLA          CLEAR     71  63  75 CALM      30.13S
SEDALIA        PTCLDY    78  66  66 SW3       30.14S
OSAGE BEACH    CLEAR     72  66  83 CALM      30.14S

$$
MOZ051-052-059>065-310300-
...EAST CENTRAL MISSOURI...

CITY           SKY/WX    TMP DP  RH WIND       PRES   REMARKS
ST LOUIS INTL  PTCLDY    81  63  54 NW3       30.11R
SPIRIT OF STL  PTCLDY    75  72  90 CALM      30.10S
ST CHARLES     PTCLDY    80  69  69 CALM      30.09S

$$
MOZ072>076-082>087-097>100-106>115-310300-
...SOUTH CENTRAL AND SOUTHEAST MISSOURI...

CITY           SKY/WX    TMP DP  RH WIND       PRES   REMARKS
CAPE GIRARDEAU PTCLDY    72  70  93 SW3       30.09R
FARMINGTON     MOCLDY    73  66  78 CALM      30.17S
POPLAR BLUFF   PTCLDY    74  69  85 CALM      30.09R
WEST PLAINS    PTCLDY    75  67  76 CALM      30.15F

$$



USA.gov is the U.S. government's official web portal to all federal, state and local government web resources and services.